Location: Ardick
(31.4613°N, 81.4334°W)
Time: 17:23:10
(UTC+00:00)

X-37B - Pass Details

Date: 19 September 2021
Orbit: 385 x 389 km, 45.0° (Epoch: 13 October)

Event Time Altitude Azimuth Distance (km) Brightness Sun altitude
Exits shadow 10:46:18 - 252° (WSW) 1,573 3.0 -6.4°
Reaches altitude 10° 10:46:43 10° 254° (WSW) 1,405 2.8 -6.3°
Maximum altitude 10:49:46 44° 328° (NNW) 546 1.1 -5.6°
Drops below altitude 10° 10:52:50 10° 42° (NE) 1,412 4.2 -5.0°
Sets 10:54:58 0° 49° (NE) 2,270 5.5 -4.5°
